Temp
19 18 18 18 19 18 20 21 21 21 22 23 22 22 21 21 20 19 19 21 20 20 19 18 18 18 17 18 18 18 18 18 18 18 18 18 18 18 19 19 18 18 18 18 18 18 19 19 19
19 18 18 19 18 19 20 21 22 22 23 23 23 22 21 19 19 19 19 20 20 20 19 18 18 18 18 18 18 18 18 18 18 17 18 18 18 18 18 18 18 18 18 18 17 18 19 19 19
20 19 19 19 18 20 21 21 22 22 22 23 23 21 20 18 19 20 20 20 20 20 19 19 18 18 18 18 18 18 18 18 18 18 17 18 18 18 18 18 18 18 18 17 17 18 18 18 18
20 20 20 19 22 22 22 22 23 23 24 23 22 19 19 17 19 20 20 20 20 19 19 19 19 18 18 18 18 18 18 18 18 18 18 18 18 18 18 18 18 18 18 18 18 18 18 18 18
20 21 19 20 22 23 23 22 23 23 24 23 22 19 17 19 20 21 21 20 20 19 19 19 19 19 19 19 19 18 18 18 18 18 18 18 18 19 18 18 18 18 18 18 18 17 18 17 17
21 21 19 20 22 23 23 23 22 23 23 22 21 20 18 19 20 20 21 20 20 20 19 19 19 19 19 19 19 18 18 18 18 18 18 18 18 18 18 18 18 18 18 17 17 17 17 18 18
21 19 21 21 21 22 23 23 23 23 23 22 22 18 17 18 20 20 20 20 19 19 19 19 19 19 19 19 19 18 18 18 18 18 18 18 18 18 18 18 18 18 18 18 18 18 18 18 18
22 19 22 21 22 24 23 24 24 24 23 23 24 19 17 17 19 20 20 19 19 19 19 19 19 19 19 18 18 18 18 18 18 18 18 18 18 18 18 18 18 17 18 18 18 18 18 18 18
22 20 21 23 23 24 24 24 24 24 23 23 23 23 22 19 20 20 19 19 19 19 19 19 19 19 19 18 18 18 18 18 18 18 18 18 18 18 18 18 18 18 18 18 17 17 17 18 18
21 20 23 24 23 23 24 24 24 24 23 23 22 22 21 20 20 20 20 20 19 19 19 19 19 20 19 19 19 18 18 18 18 18 18 18 18 18 18 18 18 18 18 18 18 17 18 18 18
22 23 25 25 25 24 24 24 24 23 22 23 21 21 21 20 20 20 20 20 20 20 19 19 19 20 20 19 19 18 19 18 19 18 18 19 18 18 18 18 18 17 18 18 18 18 17 17 17
23 25 25 26 25 24 24 25 24 24 24 24 24 24 22 21 21 21 21 21 21 20 20 20 20 20 20 20 19 19 19 19 19 18 19 19 19 18 18 18 18 18 18 18 18 18 17 17 18
24 26 26 26 26 25 26 25 25 24 24 24 23 23 23 22 22 22 22 21 21 21 20 20 20 20 20 20 20 19 19 19 19 18 19 19 18 19 18 18 18 18 18 18 18 18 18 18 18
29 27 26 26 26 25 26 25 25 25 23 22 22 23 23 22 22 21 21 21 21 21 21 21 21 20 20 20 20 20 19 19 19 18 19 19 18 18 19 18 18 18 18 18 18 18 18 18 18
28 26 25 25 25 25 26 25 24 25 23 21 21 22 22 23 22 22 22 22 22 22 22 22 21 21 20 20 20 20 19 19 19 19 18 18 18 19 19 18 18 18 18 18 18 18 17 18 18
25 25 24 26 25 26 26 23 24 24 23 21 21 21 21 22 23 23 23 23 22 22 22 22 21 21 20 20 20 20 19 19 19 19 18 18 18 18 18 18 18 18 18 18 18 17 17 17 17
22 24 25 26 25 25 25 25 24 24 23 21 21 20 21 21 22 22 23 23 23 23 23 22 21 21 21 20 20 20 19 19 19 19 19 19 18 18 18 18 18 18 18 18 18 18 18 17 17
24 24 25 25 25 25 24 23 23 24 23 23 22 21 22 22 23 23 23 23 23 23 22 22 22 22 21 21 20 20 19 20 19 19 19 19 19 18 18 18 18 18 18 18 18 18 18 18 17
24 24 25 25 26 26 24 23 23 23 23 23 23 23 23 23 24 24 24 23 23 22 22 22 22 22 21 21 20 20 20 20 20 20 20 19 19 19 18 18 18 18 18 18 18 18 18 18 17
23 25 26 26 27 25 26 24 24 23 23 24 23 23 24 24 23 23 23 23 23 23 23 22 22 22 21 21 21 21 21 20 20 20 20 20 19 19 19 19 18 18 18 18 18 18 18 18 18
24 26 26 27 26 26 26 24 26 24 24 24 24 24 24 25 25 23 23 24 24 24 24 23 23 22 22 21 21 21 20 20 20 20 21 20 19 19 19 19 19 18 18 18 18 18 18 18 18
25 27 26 27 25 24 23 22 22 24 23 23 24 24 24 24 25 25 24 24 24 25 24 24 23 23 22 22 21 21 21 21 21 20 21 20 20 20 19 19 19 19 19 19 19 18 18 18 18
25 26 24 25 23 24 23 21 22 22 25 23 25 25 25 25 24 25 25 26 25 25 25 25 24 23 23 22 21 21 21 21 20 20 20 20 20 20 20 19 19 19 19 19 19 19 19 19 18
25 26 20 17 18 21 23 22 21 23 26 25 27 27 26 25 26 24 26 26 26 25 25 24 24 24 23 22 22 22 21 21 20 21 20 20 20 20 20 19 19 19 19 19 19 19 18 18 19
23 20 19 22 19 22 19 21 22 24 22 22 23 25 30 26 25 25 25 26 26 26 25 25 24 24 24 23 22 22 22 21 21 21 21 20 20 20 20 20 20 19 19 19 19 19 19 19 19
23 21 19 25 21 21 19 24 25 25 23 23 25 27 27 26 26 26 25 26 26 26 26 25 24 24 24 24 23 23 22 21 21 21 21 21 21 21 21 20 20 20 20 19 19 19 19 19 19
25 22 20 17 16 18 19 22 23 24 23 22 22 25 26 26 26 26 25 26 26 26 26 26 25 25 24 24 23 22 22 21 21 21 21 21 21 21 20 20 20 21 21 21 20 19 19 19 19
26 20 22 17 23 25 20 21 21 21 21 21 20 21 23 25 26 26 26 26 26 26 26 26 25 25 24 23 23 23 22 22 20 20 21 22 22 21 21 20 21 21 21 21 20 20 20 20 19
22 22 16 16 16 20 20 21 20 19 20 21 21 23 24 26 27 26 26 26 26 25 24 24 24 23 22 20 22 23 22 23 22 20 20 21 22 22 21 21 21 20 21 21 21 20 20 20 20
24 23 18 19 21 15 17 20 22 19 20 21 21 22 24 26 26 25 25 24 23 23 23 23 23 21 20 21 19 22 22 23 23 22 22 22 21 22 21 21 20 20 21 21 20 21 20 20 20
Height
1511 1511 1511 1512 1518 1517 1527 1525 1517 1521 1520 1518 1521 1523 1525 1528 1531 1543 1533 1539 1544 1548 1551 1554 1557 1560 1562 1563 1564 1566 1566 1567 1568 1569 1569 1570 1572 1573 1573 1574 1574 1575 1575 1576 1577 1579 1579 1580 1581
1511 1511 1510 1509 1525 1534 1532 1520 1521 1519 1519 1520 1521 1523 1525 1530 1530 1532 1536 1542 1547 1550 1553 1556 1560 1561 1564 1566 1567 1568 1569 1570 1570 1570 1571 1572 1574 1575 1575 1576 1577 1578 1578 1579 1580 1581 1582 1582 1583
1510 1510 1512 1511 1525 1535 1530 1520 1519 1520 1519 1522 1523 1525 1527 1530 1531 1534 1539 1544 1549 1552 1556 1559 1561 1563 1566 1567 1568 1570 1571 1572 1573 1572 1571 1574 1576 1578 1578 1579 1580 1580 1581 1582 1584 1584 1585 1585 1586
1510 1511 1512 1521 1525 1522 1518 1518 1519 1520 1522 1523 1525 1528 1530 1531 1533 1537 1541 1546 1551 1555 1558 1560 1563 1565 1567 1568 1569 1571 1572 1573 1574 1575 1575 1577 1578 1580 1581 1583 1583 1583 1583 1585 1587 1588 1589 1589 1590
1511 1510 1519 1526 1522 1518 1517 1517 1519 1521 1521 1523 1525 1532 1534 1537 1538 1541 1544 1549 1554 1557 1560 1562 1565 1567 1568 1570 1571 1572 1574 1575 1576 1577 1578 1579 1581 1581 1583 1584 1585 1586 1587 1588 1590 1591 1592 1592 1593
1511 1512 1530 1535 1525 1518 1518 1518 1520 1522 1522 1526 1528 1532 1539 1541 1542 1545 1548 1552 1557 1559 1561 1564 1566 1568 1570 1571 1573 1574 1576 1577 1577 1579 1580 1582 1583 1584 1586 1587 1588 1588 1590 1592 1593 1593 1594 1595 1596
1513 1519 1530 1529 1527 1522 1519 1520 1519 1521 1524 1527 1529 1535 1540 1541 1545 1547 1551 1555 1559 1562 1563 1566 1568 1570 1571 1573 1574 1576 1578 1579 1579 1580 1582 1584 1586 1587 1588 1590 1590 1592 1592 1593 1595 1595 1596 1597 1598
1515 1518 1526 1528 1528 1523 1518 1520 1520 1521 1526 1527 1530 1534 1540 1541 1545 1548 1553 1557 1560 1563 1565 1568 1569 1572 1573 1574 1575 1578 1580 1580 1581 1581 1583 1585 1587 1588 1590 1591 1592 1593 1594 1595 1596 1597 1598 1599 1600
1515 1523 1530 1525 1525 1518 1517 1520 1522 1524 1525 1528 1530 1532 1535 1540 1545 1549 1554 1558 1561 1563 1566 1569 1571 1572 1574 1575 1577 1579 1581 1581 1581 1583 1586 1587 1588 1590 1592 1592 1594 1595 1596 1598 1598 1600 1600 1601 1601
1517 1526 1521 1516 1516 1518 1517 1520 1522 1525 1528 1531 1533 1535 1539 1542 1546 1549 1552 1556 1560 1562 1565 1569 1572 1574 1575 1577 1579 1581 1582 1582 1583 1585 1587 1589 1590 1592 1593 1594 1595 1597 1598 1600 1600 1601 1602 1604 1605
1517 1522 1513 1516 1516 1517 1518 1520 1522 1524 1529 1527 1530 1535 1540 1543 1547 1551 1554 1556 1559 1563 1566 1569 1572 1575 1577 1578 1580 1581 1583 1584 1585 1587 1589 1591 1592 1594 1594 1595 1596 1598 1599 1600 1602 1604 1605 1606 1606
1519 1511 1512 1513 1516 1518 1519 1520 1522 1522 1524 1525 1529 1533 1538 1543 1547 1550 1553 1556 1560 1563 1567 1570 1572 1575 1577 1579 1581 1583 1584 1585 1587 1589 1591 1592 1594 1596 1597 1597 1598 1600 1601 1602 1603 1605 1606 1607 1608
1517 1509 1510 1512 1515 1518 1519 1520 1521 1521 1522 1526 1531 1535 1539 1543 1547 1551 1555 1558 1560 1564 1567 1570 1573 1575 1577 1579 1582 1583 1585 1587 1589 1591 1592 1593 1595 1597 1598 1599 1600 1602 1602 1603 1605 1606 1607 1607 1608
1513 1512 1511 1511 1513 1516 1519 1520 1520 1521 1522 1527 1531 1536 1540 1544 1547 1551 1554 1557 1559 1563 1566 1569 1572 1575 1577 1579 1582 1584 1586 1588 1590 1592 1594 1595 1596 1598 1599 1600 1601 1603 1604 1604 1606 1607 1607 1607 1608
1513 1514 1512 1514 1515 1517 1517 1521 1520 1521 1520 1526 1532 1537 1541 1543 1547 1549 1552 1556 1558 1561 1566 1569 1572 1574 1577 1579 1582 1584 1587 1589 1590 1593 1595 1596 1597 1598 1599 1601 1602 1603 1605 1605 1606 1607 1607 1607 1607
1517 1518 1530 1514 1515 1517 1520 1533 1517 1520 1520 1525 1530 1534 1538 1542 1544 1548 1551 1555 1558 1562 1565 1569 1572 1573 1576 1578 1581 1584 1587 1589 1591 1592 1594 1595 1597 1598 1600 1601 1602 1603 1604 1605 1606 1607 1607 1607 1608
1530 1541 1531 1521 1517 1518 1520 1522 1516 1519 1522 1524 1527 1532 1536 1540 1542 1546 1550 1553 1556 1560 1563 1567 1570 1573 1575 1579 1581 1584 1587 1588 1590 1591 1592 1594 1597 1598 1599 1601 1602 1603 1604 1605 1605 1606 1606 1607 1607
1543 1540 1532 1530 1518 1519 1522 1519 1516 1518 1522 1524 1523 1529 1532 1532 1536 1542 1547 1551 1555 1559 1563 1566 1569 1572 1575 1578 1581 1583 1585 1587 1589 1590 1592 1593 1595 1597 1598 1600 1601 1603 1604 1604 1605 1605 1605 1605 1606
1531 1535 1536 1522 1514 1519 1522 1520 1515 1517 1520 1522 1524 1526 1527 1525 1533 1540 1545 1551 1555 1559 1562 1565 1567 1570 1572 1575 1578 1580 1581 1584 1587 1589 1591 1592 1594 1595 1596 1597 1599 1600 1602 1603 1604 1604 1604 1604 1604
1531 1532 1529 1521 1516 1519 1519 1518 1510 1511 1508 1512 1516 1520 1521 1527 1532 1537 1542 1546 1549 1554 1558 1561 1565 1567 1569 1572 1574 1577 1579 1582 1585 1587 1589 1591 1592 1593 1594 1595 1596 1597 1599 1601 1601 1602 1603 1603 1602
1529 1529 1528 1526 1519 1517 1519 1525 1512 1506 1508 1511 1514 1513 1516 1518 1525 1531 1536 1539 1545 1546 1550 1554 1558 1562 1566 1568 1572 1574 1577 1579 1580 1582 1585 1587 1589 1590 1592 1593 1594 1595 1596 1598 1599 1599 1601 1601 1601
1539 1520 1522 1522 1529 1545 1526 1558 1525 1510 1507 1507 1505 1507 1505 1510 1519 1525 1529 1534 1536 1538 1543 1548 1553 1557 1561 1564 1567 1569 1570 1572 1575 1578 1582 1584 1586 1587 1589 1591 1592 1592 1593 1595 1596 1597 1598 1599 1599
1531 1520 1525 1525 1535 1537 1537 1552 1530 1514 1510 1502 1497 1498 1498 1503 1509 1515 1518 1525 1528 1531 1534 1541 1547 1551 1556 1560 1564 1566 1567 1569 1572 1575 1578 1581 1583 1584 1586 1588 1589 1590 1590 1592 1593 1594 1595 1596 1597
1519 1522 1534 1543 1549 1565 1542 1550 1539 1523 1510 1498 1489 1489 1489 1495 1501 1509 1515 1520 1524 1529 1533 1539 1543 1547 1553 1556 1559 1562 1564 1566 1568 1571 1574 1577 1579 1581 1582 1584 1585 1587 1587 1588 1590 1591 1592 1593 1594
1525 1542 1572 1568 1579 1570 1549 1553 1531 1507 1501 1496 1486 1485 1481 1489 1497 1501 1508 1511 1520 1524 1529 1535 1540 1546 1548 1551 1554 1557 1559 1562 1564 1567 1569 1571 1574 1576 1579 1580 1582 1583 1584 1585 1586 1588 1589 1589 1590
1532 1539 1569 1569 1583 1570 1549 1547 1521 1500 1496 1488 1480 1478 1480 1486 1493 1498 1504 1509 1514 1520 1524 1530 1535 1537 1541 1544 1548 1553 1557 1559 1560 1562 1565 1567 1570 1573 1576 1577 1579 1580 1581 1582 1583 1584 1584 1586 1585
1530 1546 1541 1570 1578 1577 1562 1535 1509 1498 1496 1492 1487 1485 1484 1487 1491 1497 1503 1507 1510 1515 1519 1524 1528 1531 1534 1539 1543 1548 1554 1558 1558 1559 1561 1564 1567 1570 1572 1574 1575 1577 1577 1578 1579 1580 1581 1581 1582
1519 1531 1551 1564 1569 1566 1565 1555 1545 1515 1508 1500 1495 1491 1490 1491 1495 1498 1501 1504 1507 1513 1517 1520 1523 1529 1539 1541 1541 1546 1549 1552 1555 1557 1559 1560 1563 1566 1568 1570 1572 1573 1574 1574 1575 1576 1577 1575 1576
1534 1539 1554 1561 1571 1578 1584 1558 1525 1521 1512 1505 1500 1495 1494 1495 1497 1499 1502 1505 1508 1512 1515 1521 1523 1533 1537 1547 1547 1543 1546 1546 1550 1552 1554 1557 1559 1562 1564 1566 1568 1569 1570 1571 1571 1572 1573 1572 1572
1525 1534 1546 1564 1564 1577 1573 1557 1516 1515 1511 1507 1503 1501 1498 1499 1501 1502 1504 1506 1510 1513 1517 1522 1524 1531 1538 1539 1538 1541 1545 1544 1546 1547 1548 1551 1554 1557 1560 1561 1563 1564 1566 1567 1568 1568 1570 1570 1569
Wind_Speed
7 4 3 2 3 5 3 3 3 2 1 1 22 4 6 3 2 2 19 30 27 26 23 19 18 15 13 12 12 12 12 14 15 15 16 16 14 12 13 15 17 18 18 19 18 17 17 17 19
5 5 2 0 5 4 3 3 4 2 2 14 8 8 5 3 3 11 34 29 26 25 22 20 18 15 13 12 12 11 11 12 13 11 14 15 14 13 15 17 17 17 18 18 18 17 19 21 22
4 1 4 3 3 4 2 3 4 6 10 11 3 7 2 2 7 33 30 30 26 25 22 18 16 14 13 12 11 10 10 11 10 9 20 18 15 14 15 16 17 17 17 17 17 17 20 20 19
1 0 1 4 2 2 1 2 4 1 3 2 10 6 5 3 27 27 31 29 26 24 21 17 14 13 13 12 11 10 10 12 11 15 19 16 14 12 16 15 16 16 15 17 18 19 20 19 17
2 1 4 4 1 3 1 5 4 1 5 7 3 4 8 11 22 29 31 28 25 23 19 17 15 13 12 10 10 11 10 11 13 15 15 14 10 13 16 16 16 15 18 19 20 18 18 16 16
1 1 5 2 3 2 4 5 3 4 9 9 12 10 4 3 20 29 29 27 22 20 18 17 15 12 11 10 9 11 10 11 12 12 13 11 12 11 13 16 16 14 17 16 16 14 13 15 16
4 3 3 2 3 3 0 6 8 7 8 5 18 5 5 12 23 26 28 25 22 18 17 17 14 12 10 9 10 11 11 12 11 14 14 12 13 11 13 15 14 14 15 16 15 12 15 15 14
3 3 2 1 0 1 2 3 10 12 3 19 13 6 7 21 26 27 28 25 21 19 18 16 14 12 10 8 11 12 11 11 11 13 14 14 12 12 15 14 11 12 13 15 14 13 15 13 10
3 4 1 3 5 2 3 3 6 11 17 6 7 6 21 27 27 29 29 26 24 21 19 16 14 12 9 9 13 14 13 12 10 13 14 14 14 12 14 13 11 11 12 14 13 11 12 11 10
3 2 3 4 4 3 4 3 9 6 17 6 10 10 24 27 27 30 30 29 26 25 22 18 15 12 9 9 14 15 13 13 11 14 15 14 13 13 14 13 10 8 10 13 13 11 9 9 9
2 3 2 5 6 3 6 1 2 10 5 12 24 27 28 27 28 29 29 27 26 24 22 19 16 14 10 11 14 15 13 13 12 14 13 13 12 12 13 14 11 10 10 12 13 10 9 9 7
3 10 9 3 5 3 6 1 1 11 4 17 22 28 32 29 30 30 27 24 24 24 21 19 17 15 13 11 13 14 13 12 13 14 13 11 10 11 9 10 11 9 10 9 9 8 7 6 5
3 3 0 6 3 3 2 2 2 11 0 15 23 30 32 31 29 28 25 23 22 22 21 20 19 17 15 14 14 14 14 13 13 14 11 11 10 9 11 12 11 10 10 10 8 7 7 6 5
7 3 3 3 3 3 2 2 3 5 13 24 28 34 32 32 30 30 27 23 21 21 21 20 19 17 16 15 15 14 15 14 14 14 12 9 9 9 9 11 12 11 11 10 9 4 5 6 7
3 2 4 1 4 2 3 2 5 11 20 26 32 36 33 32 30 30 26 24 20 20 22 22 20 18 17 15 15 15 15 15 13 13 11 10 9 8 9 10 12 10 11 12 9 6 6 6 5
6 5 5 1 10 2 7 7 3 21 27 28 31 35 35 35 33 30 29 26 23 22 23 23 22 23 18 16 16 17 15 14 13 11 11 11 11 9 7 9 10 12 11 10 11 7 7 7 6
6 4 5 4 6 3 3 5 5 24 24 26 31 31 34 35 35 33 33 29 27 24 24 24 23 26 20 20 18 18 16 13 12 10 10 10 9 9 10 9 10 11 11 11 11 10 6 7 9
6 6 5 4 5 4 5 9 4 24 21 23 29 29 34 37 38 34 34 34 31 28 27 24 25 25 23 22 21 20 19 16 14 12 12 12 12 11 10 12 12 13 13 14 13 10 9 8 9
5 3 4 5 4 3 6 8 8 19 19 20 24 29 32 38 36 35 34 36 36 33 31 30 25 28 26 26 25 24 22 19 16 15 13 14 14 12 12 10 13 14 14 11 13 13 11 11 12
4 1 4 4 2 6 4 10 6 17 27 31 29 31 38 37 26 33 36 37 38 37 35 34 33 28 31 28 27 26 23 20 16 14 17 15 15 13 11 10 13 14 15 15 14 15 14 12 12
3 1 4 5 2 3 2 8 4 7 14 21 27 35 37 42 40 32 35 36 36 39 38 39 36 34 30 31 28 27 24 23 20 18 18 18 15 15 13 11 11 15 16 16 16 18 17 13 14
4 3 5 4 4 3 4 4 7 2 8 11 25 30 39 40 41 40 39 39 38 38 37 36 38 37 34 33 31 29 25 25 23 22 19 18 17 16 15 13 12 12 14 14 14 15 18 16 16
8 4 3 2 2 3 7 4 7 6 6 11 20 31 38 39 39 43 42 40 43 39 36 34 36 38 37 35 32 30 27 25 23 25 23 20 18 17 16 16 16 14 14 16 16 17 16 16 17
2 1 7 4 3 3 4 4 6 4 6 8 11 25 36 35 39 38 40 39 39 40 38 35 33 35 37 37 32 31 30 26 25 25 27 25 22 20 19 18 18 18 16 17 18 19 20 19 19
6 7 4 5 5 4 1 2 9 8 8 9 19 18 19 30 35 37 38 41 40 40 39 37 34 33 34 36 36 31 33 25 25 22 21 23 23 23 20 19 20 20 19 17 19 21 22 22 22
4 6 5 1 1 5 2 3 6 2 15 17 11 11 10 23 28 32 33 33 36 40 39 38 34 35 33 36 35 32 29 32 24 21 19 20 22 20 18 18 18 19 20 20 21 21 23 23 25
2 4 3 7 2 2 4 7 10 7 12 22 18 8 14 18 20 24 27 27 29 36 39 37 37 37 35 38 39 35 32 31 27 22 19 19 21 20 19 19 19 16 17 18 22 24 24 23 23
3 6 4 4 1 3 5 5 5 16 15 11 12 10 8 11 13 15 19 23 24 27 33 37 38 30 33 37 37 34 29 27 28 26 22 19 20 21 21 19 20 19 19 20 20 21 20 22 22
4 3 7 5 3 5 1 6 5 10 9 6 7 6 6 9 10 12 14 17 20 23 28 32 35 33 24 34 38 34 31 24 30 28 26 24 22 22 23 23 23 22 22 22 22 21 20 20 21
3 3 4 5 4 0 3 5 4 5 10 8 5 3 5 6 7 10 12 15 16 16 18 21 28 31 29 26 43 37 35 25 22 26 23 21 25 26 26 26 27 26 24 23 22 22 18 19 19
Wind_Direction
136 130 129 141 49 65 48 34 126 36 115 259 149 149 168 92 147 202 146 158 161 157 158 159 154 150 145 139 135 137 131 132 138 143 148 143 134 122 100 113 118 115 118 119 121 121 121 119 114
139 143 205 210 81 64 326 306 50 348 344 147 127 97 83 96 102 140 147 157 161 158 158 158 156 154 152 146 148 145 138 138 144 151 159 154 141 124 119 124 121 123 122 122 124 124 119 114 113
102 128 334 82 89 119 120 349 30 91 113 138 98 71 56 97 134 148 150 156 163 160 157 159 158 157 157 153 149 148 148 146 143 117 150 146 145 128 127 126 124 124 126 130 129 127 121 117 114
117 95 302 72 55 73 119 162 99 74 124 81 114 70 64 318 137 149 151 157 165 159 158 159 160 159 161 160 152 149 150 145 144 136 132 133 140 140 135 127 130 126 131 126 128 127 121 118 116
42 124 60 80 344 123 121 123 123 299 109 117 111 68 98 102 145 152 153 160 164 160 162 161 161 165 165 164 161 162 157 158 154 158 148 138 136 140 138 133 132 133 133 126 126 128 126 125 121
28 50 47 56 348 45 128 175 182 174 100 116 97 94 106 122 156 157 159 161 165 164 163 167 167 170 169 170 169 162 157 157 156 161 157 148 138 140 138 139 137 137 140 136 133 133 131 134 126
73 53 118 6 334 325 234 147 132 128 120 119 135 82 122 155 166 164 164 166 168 172 169 172 174 170 173 175 179 168 163 157 157 157 155 152 145 150 145 137 139 136 145 142 142 140 133 128 128
48 100 78 106 278 261 156 107 114 140 107 147 133 155 164 166 166 166 168 171 175 176 176 180 176 175 176 174 176 175 165 162 162 160 157 152 147 149 137 143 139 147 148 153 148 131 139 133 123
13 55 352 175 179 251 144 101 122 139 144 137 150 146 161 160 166 166 172 177 180 181 181 183 182 180 180 177 177 172 165 164 167 166 158 163 152 147 143 141 157 153 151 159 159 142 141 151 142
50 84 230 176 153 172 183 133 149 145 159 120 120 143 161 165 169 171 177 181 186 185 184 185 184 183 179 177 175 171 169 175 169 168 166 164 163 151 150 150 150 151 160 164 170 167 152 139 133
165 214 261 128 142 153 159 153 153 134 175 176 158 157 168 170 176 179 183 187 186 187 186 188 185 184 181 179 177 180 175 178 171 168 171 164 169 164 163 162 161 159 168 169 179 174 163 150 141
296 231 244 43 123 124 146 121 86 162 197 201 178 175 172 174 180 184 186 189 190 191 192 190 189 187 183 183 184 182 179 175 173 174 178 178 173 173 173 176 173 172 165 171 178 182 183 171 152
256 320 161 187 100 162 118 142 206 220 268 176 174 181 176 178 182 187 191 193 194 196 196 197 193 189 187 187 187 186 182 173 169 172 175 182 177 179 186 184 182 184 182 178 173 183 194 212 224
297 332 307 205 190 142 81 50 174 166 157 158 173 182 182 185 189 191 197 201 201 196 200 199 195 192 193 193 190 185 180 177 176 175 173 168 177 187 186 187 188 184 190 181 184 193 214 240 240
354 35 338 122 170 123 153 312 227 183 171 162 175 182 189 193 197 201 204 205 199 192 192 198 193 190 192 194 191 189 187 187 185 184 182 180 174 164 185 198 200 198 192 196 207 238 267 226 223
27 51 11 262 141 274 140 268 232 177 168 165 180 189 195 200 204 209 211 211 204 200 191 192 193 188 190 189 186 187 189 186 189 193 192 196 200 195 199 203 199 205 205 208 223 244 251 218 222
12 328 349 352 212 106 182 265 174 177 179 167 185 189 200 207 213 214 213 214 211 202 194 188 192 190 188 186 185 187 195 199 201 202 209 210 217 219 222 224 209 210 209 217 233 236 248 239 251
307 338 334 282 225 191 212 263 161 183 187 193 188 187 204 211 216 217 216 216 215 212 207 196 192 191 192 193 195 199 203 205 212 220 226 230 233 233 243 233 232 231 235 231 233 235 239 252 257
252 217 237 276 165 122 236 259 225 197 198 202 206 203 204 218 217 216 218 220 222 220 216 207 202 196 194 195 199 204 209 211 217 223 231 236 239 241 246 243 242 243 250 260 248 250 249 249 253
201 267 304 293 193 170 202 254 212 184 209 204 201 208 215 223 216 217 220 221 226 226 223 219 214 209 202 201 203 208 212 218 227 241 232 233 237 240 246 253 256 260 260 252 256 254 254 262 269
358 206 264 256 8 62 324 324 307 228 218 212 218 221 220 219 220 219 218 220 225 228 225 223 220 218 214 209 208 215 217 223 227 234 227 225 231 239 248 257 267 267 260 255 258 256 259 267 274
339 245 269 305 42 292 23 278 303 273 251 222 223 217 224 220 219 221 223 223 224 229 228 228 222 220 219 217 214 218 220 224 229 233 240 235 233 238 245 255 263 271 260 260 260 261 261 261 270
229 27 38 14 100 68 345 71 268 1 302 271 232 223 226 223 219 217 221 223 226 227 228 219 222 221 220 220 221 223 227 231 241 241 240 241 239 241 246 251 258 265 264 262 267 265 262 266 270
78 121 43 53 68 40 293 108 285 199 220 273 258 237 231 215 223 217 221 221 225 227 228 221 218 222 222 222 222 226 229 232 235 238 240 244 247 245 249 251 254 260 266 265 266 268 266 271 274
70 51 348 9 14 212 230 71 243 285 281 259 283 273 243 214 212 215 209 218 221 226 226 224 222 223 225 224 225 227 230 232 230 236 245 243 242 243 242 247 252 258 264 268 267 265 268 271 275
66 136 147 240 246 271 311 270 270 359 337 350 331 272 209 190 206 216 215 216 219 224 228 226 225 226 230 227 226 230 235 235 230 231 244 243 241 241 244 250 254 259 261 266 268 272 272 273 275
154 47 165 103 29 32 284 302 317 333 356 359 10 85 143 178 201 213 212 225 223 222 226 227 229 229 231 231 228 229 235 240 239 232 238 245 245 245 246 251 253 249 255 262 269 269 267 274 280
112 157 42 14 58 326 304 293 254 331 326 341 355 35 106 160 187 208 221 228 229 229 228 227 227 233 235 235 231 233 238 244 252 244 243 247 251 250 250 249 248 247 250 260 270 266 272 278 279
20 37 54 111 108 158 294 283 225 280 278 301 325 64 119 164 194 210 221 230 232 231 230 228 231 226 228 247 243 237 239 249 252 249 244 248 252 254 252 251 252 254 253 259 269 275 278 275 279
92 101 119 106 278 63 151 273 294 294 297 327 2 15 98 133 170 196 212 216 218 225 233 239 238 231 222 267 255 249 242 247 252 249 252 251 253 254 256 256 256 256 257 259 263 264 276 278 277